Location: Unspecified
(49.2170°N, 0.0000°E)
Time: 21:53:05
(UTC+00:00)

Courier 1B Rocket - Pass Details

Date: 24 January 2021
Orbit: 920 x 1202 km, 28.2° (Epoch: 08 March)

Event Time Altitude Azimuth Distance (km) Brightness Sun altitude
Rises 07:34:47 0° 220° (SW) 3,756 7.9 -1.7°
Reaches altitude 10° 07:39:35 10° 190° (S) 2,880 7.7 -1.0°
Maximum altitude 07:41:55 12° 171° (S) 2,781 8.0 -0.7°
Drops below altitude 10° 07:44:19 10° 151° (SSE) 2,952 8.6 -0.4°
Sets 07:49:25 0° 122° (ESE) 3,982 12.5 0.4°
